GIA230 WIII-WAHS

Flight info

Callsign GIA230
Flight time 0h 40m
Altitude 25000
Route CA
Aircraft B77W/H-SDE1E2E3FGHIJ2J3J4J5M1RWXY/LB1D1

Departure

Time 2026-04-21 21:27
Airport Soekarno-Hatta International Airport (WIII)

Arrival

Time 2026-04-21 22:08
Airport Jenderal Ahmad Yani Airport (WAHS)
Time Latitude Longitude Altitude Speed Heading
2026-04-21 21:14 -6.13280 106.65552 43 ft 0 kts 38°
2026-04-21 21:18 -6.13288 106.65545 41 ft 4 kts 33°
2026-04-21 21:18 -6.13308 106.65532 40 ft 4 kts 68°
2026-04-21 21:19 -6.13313 106.65511 43 ft 4 kts 108°
2026-04-21 21:19 -6.13298 106.65491 39 ft 4 kts 135°
2026-04-21 21:19 -6.13290 106.65482 42 ft 1 kts 129°
2026-04-21 21:21 -6.13292 106.65485 42 ft 4 kts 129°
2026-04-21 21:22 -6.13351 106.65556 43 ft 16 kts 129°
2026-04-21 21:22 -6.13425 106.65640 43 ft 16 kts 118°
2026-04-21 21:22 -6.13410 106.65749 43 ft 16 kts 69°
2026-04-21 21:22 -6.13369 106.65856 43 ft 16 kts 69°
2026-04-21 21:23 -6.13327 106.65964 43 ft 16 kts 69°
2026-04-21 21:23 -6.13285 106.66071 43 ft 16 kts 67°
2026-04-21 21:23 -6.13241 106.66177 43 ft 16 kts 68°
2026-04-21 21:23 -6.13197 106.66284 43 ft 16 kts 68°
2026-04-21 21:24 -6.13154 106.66391 43 ft 16 kts 68°
2026-04-21 21:24 -6.13110 106.66497 43 ft 16 kts 68°
2026-04-21 21:24 -6.13067 106.66604 43 ft 16 kts 68°
2026-04-21 21:24 -6.13024 106.66711 43 ft 16 kts 68°
2026-04-21 21:25 -6.12981 106.66818 43 ft 16 kts 68°
2026-04-21 21:25 -6.12938 106.66924 43 ft 16 kts 68°
2026-04-21 21:25 -6.12895 106.67031 43 ft 16 kts 68°
2026-04-21 21:25 -6.12860 106.67140 43 ft 16 kts 91°
2026-04-21 21:26 -6.12930 106.67222 44 ft 17 kts 158°
2026-04-21 21:26 -6.13037 106.67261 45 ft 17 kts 169°
2026-04-21 21:26 -6.13124 106.67200 45 ft 17 kts 249°
2026-04-21 21:26 -6.13223 106.66946 47 ft 80 kts 248°
2026-04-21 21:27 -6.13534 106.66170 46 ft 160 kts 248°
2026-04-21 21:27 -6.13996 106.64998 471 ft 187 kts 248°
2026-04-21 21:27 -6.14474 106.63775 1399 ft 189 kts 248°
2026-04-21 21:27 -6.14996 106.62467 1951 ft 213 kts 249°
2026-04-21 21:28 -6.15663 106.61081 2512 ft 227 kts 231°
2026-04-21 21:28 -6.17019 106.60251 3282 ft 237 kts 190°
2026-04-21 21:28 -6.19987 106.61356 5062 ft 242 kts 128°
2026-04-21 21:29 -6.20711 106.62870 5887 ft 244 kts 97°
2026-04-21 21:29 -6.20515 106.64535 6732 ft 242 kts 69°
2026-04-21 21:29 -6.19830 106.66106 7513 ft 247 kts 64°
2026-04-21 21:29 -6.19074 106.67668 8377 ft 250 kts 64°
2026-04-21 21:30 -6.18386 106.69270 9135 ft 252 kts 78°
2026-04-21 21:30 -6.18510 106.71055 9621 ft 270 kts 110°
2026-04-21 21:30 -6.19356 106.72824 10005 ft 289 kts 117°
2026-04-21 21:30 -6.20302 106.74670 10489 ft 310 kts 116°
2026-04-21 21:31 -6.21324 106.76698 10729 ft 339 kts 116°
2026-04-21 21:31 -6.22398 106.78861 11450 ft 351 kts 116°
2026-04-21 21:31 -6.23492 106.81084 12418 ft 357 kts 116°
2026-04-21 21:31 -6.24591 106.83335 13519 ft 361 kts 116°
2026-04-21 21:32 -6.25701 106.85617 14473 ft 365 kts 116°
2026-04-21 21:32 -6.26822 106.87925 15400 ft 370 kts 116°
2026-04-21 21:32 -6.27979 106.90258 16318 ft 375 kts 117°
2026-04-21 21:32 -6.29204 106.92594 17249 ft 380 kts 117°
2026-04-21 21:33 -6.30457 106.94950 18195 ft 384 kts 118°
2026-04-21 21:33 -6.31721 106.97337 18984 ft 389 kts 117°
2026-04-21 21:33 -6.32994 106.99761 19753 ft 395 kts 117°
2026-04-21 21:33 -6.34286 107.02226 20519 ft 401 kts 117°
2026-04-21 21:34 -6.35593 107.04722 21283 ft 407 kts 117°
2026-04-21 21:34 -6.36918 107.07253 22084 ft 411 kts 117°
2026-04-21 21:34 -6.38256 107.09805 22912 ft 414 kts 117°
2026-04-21 21:34 -6.39599 107.12370 23782 ft 414 kts 117°
2026-04-21 21:35 -6.40945 107.14939 24492 ft 416 kts 117°
2026-04-21 21:35 -6.42294 107.17516 24862 ft 417 kts 117°
2026-04-21 21:35 -6.43667 107.20140 24871 ft 430 kts 117°
2026-04-21 21:35 -6.45069 107.22819 24897 ft 435 kts 117°
2026-04-21 21:36 -6.46478 107.25511 24877 ft 435 kts 117°
2026-04-21 21:36 -6.47883 107.28198 24872 ft 433 kts 117°
2026-04-21 21:36 -6.49284 107.30876 24873 ft 432 kts 117°
2026-04-21 21:36 -6.50679 107.33544 24874 ft 431 kts 117°
2026-04-21 21:37 -6.52071 107.36207 24875 ft 430 kts 117°
2026-04-21 21:37 -6.53460 107.38863 24889 ft 430 kts 117°
2026-04-21 21:37 -6.54845 107.41528 24892 ft 430 kts 116°
2026-04-21 21:37 -6.55999 107.44300 24896 ft 430 kts 108°
2026-04-21 21:38 -6.56832 107.47186 24894 ft 430 kts 103°
2026-04-21 21:38 -6.57365 107.50148 24890 ft 431 kts 97°
2026-04-21 21:38 -6.57720 107.53141 24900 ft 431 kts 96°
2026-04-21 21:38 -6.58055 107.56144 24893 ft 432 kts 96°
2026-04-21 21:39 -6.58389 107.59152 24889 ft 433 kts 96°
2026-04-21 21:39 -6.58731 107.62164 24887 ft 434 kts 96°
2026-04-21 21:39 -6.59081 107.65177 24884 ft 434 kts 97°
2026-04-21 21:39 -6.59437 107.68193 24886 ft 434 kts 97°
2026-04-21 21:40 -6.59796 107.71207 24890 ft 434 kts 97°
2026-04-21 21:40 -6.60156 107.74225 24887 ft 434 kts 97°
2026-04-21 21:40 -6.60516 107.77238 24884 ft 434 kts 97°
2026-04-21 21:40 -6.60875 107.80253 24886 ft 434 kts 96°
2026-04-21 21:41 -6.61233 107.83262 24880 ft 433 kts 96°
2026-04-21 21:41 -6.61591 107.86269 24878 ft 433 kts 96°
2026-04-21 21:41 -6.61948 107.89270 24873 ft 432 kts 96°
2026-04-21 21:41 -6.62304 107.92271 24873 ft 432 kts 96°
2026-04-21 21:42 -6.62660 107.95269 24878 ft 432 kts 96°
2026-04-21 21:42 -6.63014 107.98265 24876 ft 431 kts 96°
2026-04-21 21:42 -6.63363 108.01220 24884 ft 431 kts 96°
2026-04-21 21:42 -6.63716 108.04212 24865 ft 431 kts 96°
2026-04-21 21:43 -6.64069 108.07207 24870 ft 431 kts 96°
2026-04-21 21:43 -6.64423 108.10206 24865 ft 431 kts 96°
2026-04-21 21:43 -6.64776 108.13204 24867 ft 432 kts 96°
2026-04-21 21:43 -6.65130 108.16202 24874 ft 432 kts 96°
2026-04-21 21:44 -6.65483 108.19202 24873 ft 432 kts 96°
2026-04-21 21:44 -6.65835 108.22200 24871 ft 432 kts 96°
2026-04-21 21:44 -6.66188 108.25196 24884 ft 431 kts 96°
2026-04-21 21:44 -6.66540 108.28191 24878 ft 432 kts 96°
2026-04-21 21:45 -6.66893 108.31192 24882 ft 432 kts 96°
2026-04-21 21:45 -6.67245 108.34193 24870 ft 432 kts 96°
2026-04-21 21:45 -6.67597 108.37193 24881 ft 432 kts 96°
2026-04-21 21:45 -6.67949 108.40193 24872 ft 432 kts 96°
2026-04-21 21:46 -6.68301 108.43194 24887 ft 432 kts 96°
2026-04-21 21:46 -6.68653 108.46196 24870 ft 432 kts 96°
2026-04-21 21:46 -6.69003 108.49192 24864 ft 432 kts 96°
2026-04-21 21:46 -6.69355 108.52195 24876 ft 432 kts 96°
2026-04-21 21:47 -6.69706 108.55195 24865 ft 432 kts 96°
2026-04-21 21:47 -6.70086 108.58192 24861 ft 432 kts 98°
2026-04-21 21:47 -6.70387 108.60169 24861 ft 432 kts 99°
2026-04-21 21:47 -6.70877 108.63151 24865 ft 432 kts 99°
2026-04-21 21:48 -6.71380 108.66129 24861 ft 432 kts 99°
2026-04-21 21:48 -6.71880 108.69107 24862 ft 432 kts 99°
2026-04-21 21:48 -6.72372 108.72087 24855 ft 432 kts 99°
2026-04-21 21:48 -6.72858 108.75074 24856 ft 432 kts 99°
2026-04-21 21:49 -6.73339 108.78058 24858 ft 432 kts 99°
2026-04-21 21:49 -6.73817 108.81040 24865 ft 432 kts 99°
2026-04-21 21:49 -6.74293 108.84024 24863 ft 432 kts 99°
2026-04-21 21:49 -6.74770 108.87005 24856 ft 432 kts 99°
2026-04-21 21:50 -6.75243 108.89968 24848 ft 424 kts 99°
2026-04-21 21:50 -6.75707 108.92873 24570 ft 420 kts 99°
2026-04-21 21:50 -6.76170 108.95774 24113 ft 418 kts 99°
2026-04-21 21:50 -6.76630 108.98656 23636 ft 416 kts 99°
2026-04-21 21:51 -6.77088 109.01524 23073 ft 415 kts 99°
2026-04-21 21:51 -6.77543 109.04376 22531 ft 412 kts 99°
2026-04-21 21:51 -6.77994 109.07208 22033 ft 408 kts 99°
2026-04-21 21:51 -6.78443 109.10019 21523 ft 405 kts 99°
2026-04-21 21:52 -6.78887 109.12809 21020 ft 402 kts 99°
2026-04-21 21:52 -6.79316 109.15576 20526 ft 399 kts 98°
2026-04-21 21:52 -6.79712 109.18331 20047 ft 396 kts 98°
2026-04-21 21:52 -6.80094 109.21071 19554 ft 394 kts 98°
2026-04-21 21:53 -6.80471 109.23794 19064 ft 392 kts 98°
2026-04-21 21:53 -6.80847 109.26505 18571 ft 390 kts 98°
2026-04-21 21:53 -6.81225 109.29206 18078 ft 389 kts 98°
2026-04-21 21:53 -6.81601 109.31891 17526 ft 387 kts 98°
2026-04-21 21:54 -6.81976 109.34558 17027 ft 384 kts 98°
2026-04-21 21:54 -6.82349 109.37204 16543 ft 380 kts 98°
2026-04-21 21:54 -6.82719 109.39829 16060 ft 378 kts 98°
2026-04-21 21:54 -6.83086 109.42436 15590 ft 375 kts 98°
2026-04-21 21:55 -6.83450 109.45021 15121 ft 372 kts 98°
2026-04-21 21:55 -6.83812 109.47593 14658 ft 370 kts 98°
2026-04-21 21:55 -6.84172 109.50151 14186 ft 368 kts 98°
2026-04-21 21:55 -6.84531 109.52697 13719 ft 367 kts 98°
2026-04-21 21:56 -6.84887 109.55230 13221 ft 365 kts 98°
2026-04-21 21:56 -6.85238 109.57731 12855 ft 359 kts 98°
2026-04-21 21:56 -6.85582 109.60175 12418 ft 356 kts 98°
2026-04-21 21:56 -6.85927 109.62630 11983 ft 353 kts 98°
2026-04-21 21:57 -6.86269 109.65067 11543 ft 351 kts 98°
2026-04-21 21:57 -6.86608 109.67489 11110 ft 348 kts 98°
2026-04-21 21:57 -6.86946 109.69892 10673 ft 347 kts 98°
2026-04-21 21:57 -6.87279 109.72268 10499 ft 337 kts 98°
2026-04-21 21:58 -6.87602 109.74569 10343 ft 327 kts 98°
2026-04-21 21:58 -6.87915 109.76804 10194 ft 318 kts 98°
2026-04-21 21:58 -6.88218 109.78972 10062 ft 308 kts 98°
2026-04-21 21:58 -6.88515 109.81092 9845 ft 302 kts 97°
2026-04-21 21:59 -6.88808 109.83182 9496 ft 302 kts 97°
2026-04-21 21:59 -6.89099 109.85262 9137 ft 301 kts 97°
2026-04-21 21:59 -6.89389 109.87334 8792 ft 299 kts 97°
2026-04-21 21:59 -6.89458 109.89385 8426 ft 293 kts 82°
2026-04-21 22:00 -6.89091 109.91367 8032 ft 279 kts 78°
2026-04-21 22:00 -6.88710 109.93221 7710 ft 266 kts 78°
2026-04-21 22:00 -6.88343 109.95042 7415 ft 266 kts 78°
2026-04-21 22:00 -6.87985 109.96867 7112 ft 266 kts 78°
2026-04-21 22:01 -6.87634 109.98688 6810 ft 266 kts 78°
2026-04-21 22:01 -6.87287 110.00513 6501 ft 266 kts 79°
2026-04-21 22:01 -6.86943 110.02344 6199 ft 267 kts 79°
2026-04-21 22:01 -6.86599 110.04184 5872 ft 269 kts 79°
2026-04-21 22:02 -6.86252 110.06043 5553 ft 271 kts 79°
2026-04-21 22:02 -6.85905 110.07910 5212 ft 271 kts 79°
2026-04-21 22:02 -6.85559 110.09778 4907 ft 271 kts 79°
2026-04-21 22:02 -6.85213 110.11642 4582 ft 271 kts 79°
2026-04-21 22:03 -6.84868 110.13504 4253 ft 271 kts 79°
2026-04-21 22:03 -6.84523 110.15367 3935 ft 271 kts 79°
2026-04-21 22:03 -6.84178 110.17226 3641 ft 270 kts 79°
2026-04-21 22:03 -6.83849 110.19054 3489 ft 259 kts 83°
2026-04-21 22:04 -6.84014 110.20797 3342 ft 248 kts 113°
2026-04-21 22:04 -6.84888 110.22226 3261 ft 234 kts 127°
2026-04-21 22:04 -6.85862 110.23509 3046 ft 230 kts 128°
2026-04-21 22:04 -6.86865 110.24753 2791 ft 226 kts 129°
2026-04-21 22:05 -6.87863 110.25974 2481 ft 226 kts 129°
2026-04-21 22:05 -6.88855 110.27192 2189 ft 224 kts 129°
2026-04-21 22:05 -6.89839 110.28403 1903 ft 223 kts 129°
2026-04-21 22:05 -6.90810 110.29597 1623 ft 214 kts 129°
2026-04-21 22:06 -6.91700 110.30690 1352 ft 197 kts 130°
2026-04-21 22:06 -6.92532 110.31714 1085 ft 181 kts 130°
2026-04-21 22:06 -6.93284 110.32639 872 ft 160 kts 130°
2026-04-21 22:06 -6.93958 110.33464 714 ft 151 kts 130°
2026-04-21 22:07 -6.94627 110.34288 539 ft 152 kts 129°
2026-04-21 22:07 -6.95248 110.35128 319 ft 147 kts 125°
2026-04-21 22:07 -6.95882 110.35929 134 ft 147 kts 129°
2026-04-21 22:07 -6.96541 110.36706 11 ft 140 kts 130°
2026-04-21 22:08 -6.97028 110.37285 10 ft 44 kts 130°
2026-04-21 22:08 -6.97077 110.37432 12 ft 17 kts 49°
2026-04-21 22:08 -6.96997 110.37505 23 ft 15 kts 42°
2026-04-21 22:08 -6.96905 110.37547 23 ft 16 kts 337°
2026-04-21 22:09 -6.96828 110.37470 26 ft 16 kts 311°
2026-04-21 22:09 -6.96753 110.37480 26 ft 0 kts 35°